{"data":{"norad_id":63787,"epoch":"2026-05-24T20:05:41.539776Z","epoch_age_seconds":89242,"freshness":"FRESH","line1":"1 63787U 25091N   26144.83728634  .00015130  00000+0  55798-3 0  9992","line2":"2 63787  43.0008 342.8638 0001610 274.8357  85.2311 15.27592539 60549","mean_motion":15.27592539,"eccentricity":0.000161,"inclination_deg":43.0008,"raan_deg":342.8638,"arg_perigee_deg":274.8357,"mean_anomaly_deg":85.2311,"bstar":0.00055798,"rev_number":6054,"period_min":94.265974940062,"perigee_km":481.90690510305,"apogee_km":484.11619493615,"semimajor_km":6861.1485500196,"source":"CELESTRAK","updated_at":"2026-05-25T13:38:20.135277Z"}}